When you browse on this site, cookies collect data to enhance your experience and personalize the content and advertising you see.
Visit our Privacy Policy to learn more. By continuing to use the site, you agree to this use of cookies and data.
  • En España
  • Lista de países
  • Para 7 días
  • Temperatura del agua
  • El tiempo en el mapa
  • Informadores
  • user-avatar
    Iniciar sesión

    Tiempo cada hora Tirana

    Hoy, 25 Agosto, Domingo

    Tiempo Temperatura Precipitaciones Viento Presión Humedad
    00:00 +28°C° 0 mm 3 mps 754 mmHg 49%
    01:00 +28°C° 0 mm 2 mps 754 mmHg 48%
    02:00 +27°C° 0 mm 2 mps 754 mmHg 48%
    03:00 +26°C° 0 mm 2 mps 754 mmHg 48%
    04:00 +26°C° 0 mm 2 mps 754 mmHg 47%
    05:00 +27°C° 0 mm 2 mps 754 mmHg 43%
    06:00 +29°C° 0 mm 1 mps 754 mmHg 39%
    07:00 +31°C° 0 mm 1 mps 754 mmHg 33%
    08:00 +33°C° 0.2 mm 1 mps 754 mmHg 30%
    09:00 +35°C° 0.2 mm 1 mps 754 mmHg 27%
    10:00 +37°C° 0.2 mm 1 mps 754 mmHg 23%
    11:00 +38°C° 0.1 mm 3 mps 754 mmHg 24%
    12:00 +38°C° 0.1 mm 4 mps 753 mmHg 24%
    13:00 +39°C° 0.1 mm 5 mps 753 mmHg 24%
    14:00 +39°C° 0 mm 5 mps 753 mmHg 26%
    15:00 +37°C° 0 mm 4 mps 753 mmHg 28%
    16:00 +37°C° 0 mm 4 mps 753 mmHg 30%
    17:00 +34°C° 0 mm 4 mps 753 mmHg 37%
    18:00 +31°C° 0 mm 3 mps 753 mmHg 45%
    19:00 +28°C° 0 mm 2 mps 754 mmHg 53%
    20:00 +28°C° 0.1 mm 2 mps 754 mmHg 54%
    21:00 +27°C° 0.1 mm 2 mps 754 mmHg 56%
    22:00 +27°C° 0.1 mm 2 mps 754 mmHg 57%
    23:00 +26°C° 0.1 mm 2 mps 754 mmHg 59%

    Mañana, 26 Agosto, Lunes

    Tiempo Temperatura Precipitaciones Viento Presión Humedad
    00:00 +26°C° 0.1 mm 2 mps 754 mmHg 60%
    01:00 +25°C° 0.1 mm 2 mps 754 mmHg 61%
    02:00 +25°C° 0 mm 2 mps 754 mmHg 60%
    03:00 +25°C° 0 mm 1 mps 754 mmHg 60%
    04:00 +25°C° 0 mm 1 mps 753 mmHg 59%
    05:00 +26°C° 0 mm 1 mps 754 mmHg 54%
    06:00 +28°C° 0 mm 1 mps 754 mmHg 49%
    07:00 +29°C° 0 mm 1 mps 754 mmHg 45%
    08:00 +32°C° 0 mm 1 mps 754 mmHg 38%
    09:00 +35°C° 0 mm 2 mps 754 mmHg 31%
    10:00 +38°C° 0 mm 2 mps 754 mmHg 24%
    11:00 +38°C° 0 mm 4 mps 754 mmHg 25%
    12:00 +39°C° 0 mm 5 mps 754 mmHg 26%
    13:00 +39°C° 0 mm 6 mps 754 mmHg 27%
    14:00 +37°C° 0 mm 5 mps 753 mmHg 28%
    15:00 +36°C° 0 mm 5 mps 753 mmHg 30%
    16:00 +35°C° 0 mm 4 mps 753 mmHg 31%
    17:00 +34°C° 0 mm 4 mps 753 mmHg 36%
    18:00 +32°C° 0 mm 4 mps 754 mmHg 41%
    19:00 +29°C° 0 mm 4 mps 754 mmHg 46%
    20:00 +29°C° 0 mm 3 mps 754 mmHg 46%
    21:00 +28°C° 0 mm 3 mps 754 mmHg 45%
    22:00 +28°C° 0 mm 2 mps 755 mmHg 45%
    23:00 +28°C° 0 mm 2 mps 754 mmHg 44%

    Pasado mañana, 27 Agosto, Martes

    Tiempo Temperatura Precipitaciones Viento Presión Humedad
    00:00 +28°C° 0 mm 2 mps 754 mmHg 44%
    01:00 +27°C° 0 mm 2 mps 754 mmHg 44%
    02:00 +27°C° 0 mm 2 mps 754 mmHg 43%
    03:00 +27°C° 0 mm 2 mps 754 mmHg 43%
    04:00 +27°C° 0 mm 2 mps 754 mmHg 42%
    05:00 +28°C° 0 mm 2 mps 754 mmHg 39%
    06:00 +29°C° 0 mm 2 mps 754 mmHg 37%
    07:00 +30°C° 0 mm 2 mps 754 mmHg 34%
    08:00 +32°C° 0 mm 2 mps 754 mmHg 30%
    09:00 +35°C° 0 mm 2 mps 754 mmHg 27%
    10:00 +37°C° 0 mm 2 mps 755 mmHg 23%
    11:00 +37°C° 0 mm 3 mps 754 mmHg 23%
    12:00 +37°C° 0 mm 3 mps 754 mmHg 24%
    13:00 +38°C° 0 mm 4 mps 754 mmHg 24%
    14:00 +37°C° 0 mm 4 mps 754 mmHg 27%
    15:00 +36°C° 0 mm 4 mps 754 mmHg 29%
    16:00 +35°C° 0 mm 4 mps 754 mmHg 32%
    17:00 +33°C° 0 mm 4 mps 754 mmHg 37%
    18:00 +30°C° 0 mm 4 mps 754 mmHg 42%
    19:00 +28°C° 0 mm 3 mps 755 mmHg 46%
    20:00 +28°C° 0 mm 3 mps 755 mmHg 47%
    21:00 +27°C° 0 mm 3 mps 755 mmHg 48%
    22:00 +26°C° 0 mm 2 mps 755 mmHg 49%
    23:00 +26°C° 0 mm 2 mps 755 mmHg 49%

    28 Agosto, Miércoles

    Tiempo Temperatura Precipitaciones Viento Presión Humedad
    00:00 +26°C° 0 mm 2 mps 755 mmHg 48%
    01:00 +26°C° 0 mm 1 mps 754 mmHg 47%
    02:00 +25°C° 0 mm 2 mps 754 mmHg 48%
    03:00 +25°C° 0 mm 2 mps 754 mmHg 48%
    04:00 +25°C° 0 mm 2 mps 754 mmHg 48%
    05:00 +26°C° 0 mm 1 mps 754 mmHg 45%
    06:00 +28°C° 0 mm 1 mps 754 mmHg 41%
    07:00 +30°C° 0 mm 1 mps 754 mmHg 37%
    08:00 +32°C° 0 mm 1 mps 754 mmHg 33%
    09:00 +35°C° 0 mm 2 mps 754 mmHg 29%
    10:00 +37°C° 0 mm 2 mps 754 mmHg 24%
    11:00 +37°C° 0 mm 3 mps 754 mmHg 25%
    12:00 +37°C° 0 mm 4 mps 753 mmHg 25%
    13:00 +39°C° 0 mm 5 mps 753 mmHg 25%
    14:00 +36°C° 0 mm 5 mps 753 mmHg 30%
    15:00 +34°C° 0 mm 5 mps 753 mmHg 34%
    16:00 +33°C° 0 mm 4 mps 753 mmHg 39%
    17:00 +31°C° 0 mm 3 mps 753 mmHg 42%
    18:00 +30°C° 0 mm 2 mps 753 mmHg 46%
    19:00 +28°C° 0 mm 1 mps 753 mmHg 49%
    20:00 +28°C° 0 mm 1 mps 753 mmHg 51%
    21:00 +27°C° 0 mm 1 mps 753 mmHg 52%
    22:00 +26°C° 0 mm 1 mps 753 mmHg 54%
    23:00 +26°C° 0 mm 1 mps 753 mmHg 55%

    29 Agosto, Jueves

    Tiempo Temperatura Precipitaciones Viento Presión Humedad
    00:00 +26°C° 0 mm 1 mps 753 mmHg 55%
    01:00 +25°C° 0 mm 2 mps 753 mmHg 56%
    02:00 +25°C° 0 mm 1 mps 753 mmHg 56%
    03:00 +25°C° 0 mm 1 mps 753 mmHg 56%
    04:00 +24°C° 0 mm 1 mps 753 mmHg 56%
    05:00 +26°C° 0 mm 1 mps 753 mmHg 51%
    06:00 +27°C° 0 mm 1 mps 753 mmHg 46%
    07:00 +29°C° 0 mm 1 mps 753 mmHg 40%
    08:00 +31°C° 0 mm 2 mps 753 mmHg 36%
    09:00 +34°C° 0 mm 2 mps 753 mmHg 32%
    10:00 +36°C° 0 mm 2 mps 753 mmHg 27%
    11:00 +36°C° 0 mm 3 mps 753 mmHg 27%
    12:00 +37°C° 0 mm 4 mps 752 mmHg 27%
    13:00 +37°C° 0 mm 5 mps 752 mmHg 27%
    14:00 +36°C° 0 mm 5 mps 752 mmHg 29%
    15:00 +35°C° 0 mm 5 mps 752 mmHg 30%
    16:00 +35°C° 0 mm 5 mps 752 mmHg 32%
    17:00 +32°C° 0 mm 4 mps 752 mmHg 40%
    18:00 +29°C° 0 mm 3 mps 752 mmHg 48%
    19:00 +27°C° 0 mm 2 mps 752 mmHg 56%
    20:00 +26°C° 0 mm 2 mps 752 mmHg 58%
    21:00 +26°C° 0 mm 2 mps 752 mmHg 59%
    22:00 +25°C° 0 mm 1 mps 753 mmHg 61%
    23:00 +25°C° 0 mm 1 mps 753 mmHg 61%

    30 Agosto, Viernes

    Tiempo Temperatura Precipitaciones Viento Presión Humedad
    00:00 +24°C° 0 mm 1 mps 753 mmHg 60%
    01:00 +24°C° 0 mm 1 mps 752 mmHg 60%
    02:00 +24°C° 0 mm 2 mps 752 mmHg 59%
    03:00 +24°C° 0 mm 2 mps 753 mmHg 59%
    04:00 +23°C° 0 mm 2 mps 753 mmHg 58%
    05:00 +25°C° 0 mm 2 mps 753 mmHg 52%
    06:00 +27°C° 0 mm 2 mps 753 mmHg 45%
    07:00 +28°C° 0 mm 2 mps 753 mmHg 39%
    08:00 +31°C° 0 mm 2 mps 753 mmHg 33%
    09:00 +34°C° 0 mm 2 mps 753 mmHg 28%
    10:00 +36°C° 0 mm 2 mps 753 mmHg 22%
    11:00 +37°C° 0 mm 3 mps 753 mmHg 23%
    12:00 +37°C° 0 mm 4 mps 753 mmHg 23%
    13:00 +39°C° 0 mm 5 mps 753 mmHg 23%
    14:00 +37°C° 0 mm 5 mps 753 mmHg 25%
    15:00 +36°C° 0 mm 5 mps 752 mmHg 26%
    16:00 +35°C° 0 mm 4 mps 752 mmHg 28%
    17:00 +31°C° 0 mm 3 mps 752 mmHg 39%
    18:00 +29°C° 0 mm 2 mps 753 mmHg 50%
    19:00 +26°C° 0 mm 2 mps 753 mmHg 60%
    20:00 +26°C° 0 mm 2 mps 753 mmHg 57%
    21:00 +26°C° 0 mm 2 mps 754 mmHg 54%
    22:00 +26°C° 0 mm 2 mps 754 mmHg 51%
    23:00 +26°C° 0 mm 2 mps 754 mmHg 48%
    Mostrar más